Hourly Weather Rudnya-Perhans'ka

Today, 13 April, Tuesday

Time Temperature Precipitation Wind Pressure Humidity
00:00 +7°C° 0 mm 2 mps 749 mmHg 87%
01:00 +6°C° 0 mm 2 mps 749 mmHg 87%
02:00 +7°C° 0 mm 1 mps 749 mmHg 87%
03:00 +7°C° 0 mm 1 mps 749 mmHg 87%
04:00 +7°C° 0 mm 1 mps 749 mmHg 87%
05:00 +7°C° 0 mm 1 mps 749 mmHg 87%
06:00 +8°C° 0 mm 1 mps 749 mmHg 81%
07:00 +9°C° 0 mm 1 mps 749 mmHg 75%
08:00 +10°C° 0 mm 2 mps 748 mmHg 69%
09:00 +12°C° 0 mm 2 mps 748 mmHg 67%
10:00 +13°C° 0 mm 2 mps 748 mmHg 65%
11:00 +14°C° 0 mm 2 mps 748 mmHg 63%
12:00 +14°C° 0 mm 2 mps 748 mmHg 63%
13:00 +14°C° 0 mm 2 mps 748 mmHg 64%
14:00 +13°C° 0 mm 3 mps 748 mmHg 64%
15:00 +12°C° 0 mm 3 mps 747 mmHg 70%
16:00 +11°C° 0 mm 3 mps 747 mmHg 75%
17:00 +11°C° 0 mm 3 mps 747 mmHg 81%
18:00 +10°C° 0.3 mm 3 mps 747 mmHg 84%
19:00 +10°C° 0.3 mm 3 mps 747 mmHg 88%
20:00 +9°C° 0.3 mm 2 mps 747 mmHg 91%
21:00 +9°C° 0.2 mm 2 mps 746 mmHg 91%
22:00 +9°C° 0.2 mm 2 mps 746 mmHg 92%
23:00 +10°C° 0.2 mm 1 mps 746 mmHg 92%

Tomorrow, 14 April, Wednesday

Time Temperature Precipitation Wind Pressure Humidity
00:00 +10°C° 0 mm 1 mps 746 mmHg 92%
01:00 +9°C° 0 mm 1 mps 746 mmHg 92%
02:00 +9°C° 0 mm 1 mps 745 mmHg 92%
03:00 +9°C° 0.1 mm 1 mps 745 mmHg 93%
04:00 +9°C° 0.1 mm 1 mps 745 mmHg 93%
05:00 +9°C° 0.1 mm 1 mps 745 mmHg 93%
06:00 +9°C° 0 mm 1 mps 745 mmHg 92%
07:00 +8°C° 0 mm 2 mps 745 mmHg 91%
08:00 +8°C° 0 mm 2 mps 745 mmHg 89%
09:00 +9°C° 0.1 mm 2 mps 745 mmHg 89%
10:00 +9°C° 0.1 mm 2 mps 745 mmHg 88%
11:00 +9°C° 0.1 mm 2 mps 745 mmHg 88%
12:00 +9°C° 0.3 mm 2 mps 744 mmHg 89%
13:00 +9°C° 0.3 mm 2 mps 744 mmHg 91%
14:00 +8°C° 0.3 mm 2 mps 744 mmHg 93%
15:00 +8°C° 0.2 mm 2 mps 744 mmHg 93%
16:00 +8°C° 0.2 mm 2 mps 744 mmHg 93%
17:00 +8°C° 0.2 mm 2 mps 744 mmHg 94%
18:00 +9°C° 0.1 mm 1 mps 744 mmHg 94%
19:00 +9°C° 0.1 mm 1 mps 744 mmHg 94%
20:00 +9°C° 0.1 mm 1 mps 744 mmHg 95%
21:00 +9°C° 0 mm 1 mps 744 mmHg 94%
22:00 +8°C° 0 mm 1 mps 744 mmHg 94%
23:00 +8°C° 0 mm 1 mps 744 mmHg 93%

Day after tomorrow, 15 April, Thursday

Time Temperature Precipitation Wind Pressure Humidity
00:00 +8°C° 0 mm 1 mps 744 mmHg 93%
01:00 +8°C° 0 mm 1 mps 744 mmHg 93%
02:00 +8°C° 0 mm 1 mps 744 mmHg 92%
03:00 +8°C° 0 mm 1 mps 744 mmHg 92%
04:00 +8°C° 0 mm 1 mps 744 mmHg 93%
05:00 +8°C° 0 mm 1 mps 744 mmHg 93%
06:00 +9°C° 0 mm 1 mps 744 mmHg 91%
07:00 +9°C° 0 mm 1 mps 744 mmHg 89%
08:00 +9°C° 0 mm 2 mps 744 mmHg 88%
09:00 +10°C° 0 mm 2 mps 744 mmHg 82%
10:00 +12°C° 0 mm 2 mps 744 mmHg 76%
11:00 +13°C° 0 mm 2 mps 744 mmHg 71%
12:00 +14°C° 0.3 mm 2 mps 744 mmHg 66%
13:00 +14°C° 0.3 mm 3 mps 743 mmHg 61%
14:00 +14°C° 0.3 mm 3 mps 743 mmHg 57%
15:00 +14°C° 0.6 mm 3 mps 743 mmHg 59%
16:00 +15°C° 0.6 mm 2 mps 743 mmHg 62%
17:00 +14°C° 0.6 mm 2 mps 742 mmHg 65%
18:00 +13°C° 0.5 mm 2 mps 743 mmHg 71%
19:00 +12°C° 0.5 mm 2 mps 743 mmHg 77%
20:00 +10°C° 0.5 mm 2 mps 743 mmHg 84%
21:00 +9°C° 0.1 mm 2 mps 742 mmHg 85%
22:00 +9°C° 0.1 mm 2 mps 742 mmHg 87%
23:00 +10°C° 0.1 mm 1 mps 742 mmHg 89%

16 April, Friday

Time Temperature Precipitation Wind Pressure Humidity
00:00 +9°C° 0 mm 2 mps 742 mmHg 91%
01:00 +8°C° 0 mm 2 mps 742 mmHg 93%
02:00 +8°C° 0 mm 2 mps 742 mmHg 95%
03:00 +8°C° 0.1 mm 2 mps 742 mmHg 95%
04:00 +8°C° 0.1 mm 2 mps 742 mmHg 96%
05:00 +8°C° 0.1 mm 3 mps 742 mmHg 96%
06:00 +8°C° 0.7 mm 3 mps 742 mmHg 95%
07:00 +8°C° 0.7 mm 3 mps 742 mmHg 94%
08:00 +8°C° 0.7 mm 3 mps 742 mmHg 93%
09:00 +8°C° 0.1 mm 4 mps 742 mmHg 85%
10:00 +10°C° 0.1 mm 4 mps 743 mmHg 77%
11:00 +10°C° 0.1 mm 5 mps 743 mmHg 69%
12:00 +12°C° 0 mm 4 mps 743 mmHg 65%
13:00 +12°C° 0 mm 4 mps 743 mmHg 61%
14:00 +13°C° 0 mm 4 mps 743 mmHg 57%
15:00 +12°C° 0.1 mm 4 mps 743 mmHg 60%
16:00 +11°C° 0.1 mm 3 mps 744 mmHg 63%
17:00 +11°C° 0.1 mm 3 mps 744 mmHg 67%
18:00 +10°C° 0.1 mm 2 mps 745 mmHg 72%
19:00 +9°C° 0.1 mm 2 mps 745 mmHg 78%
20:00 +7°C° 0.1 mm 2 mps 745 mmHg 83%
21:00 +7°C° 0 mm 2 mps 746 mmHg 85%
22:00 +6°C° 0 mm 2 mps 746 mmHg 86%
23:00 +5°C° 0 mm 2 mps 747 mmHg 88%

17 April, Saturday

Time Temperature Precipitation Wind Pressure Humidity
00:00 +5°C° 0 mm 2 mps 747 mmHg 89%
01:00 +5°C° 0 mm 2 mps 747 mmHg 89%
02:00 +5°C° 0 mm 2 mps 747 mmHg 90%
03:00 +4°C° 0 mm 2 mps 748 mmHg 91%
04:00 +4°C° 0 mm 2 mps 748 mmHg 93%
05:00 +4°C° 0 mm 2 mps 748 mmHg 95%
06:00 +5°C° 0 mm 2 mps 749 mmHg 88%
07:00 +6°C° 0 mm 2 mps 749 mmHg 81%
08:00 +7°C° 0 mm 2 mps 749 mmHg 74%
09:00 +9°C° 0 mm 2 mps 750 mmHg 66%
10:00 +10°C° 0 mm 2 mps 750 mmHg 58%
11:00 +13°C° 0 mm 2 mps 750 mmHg 50%
12:00 +13°C° 0 mm 2 mps 750 mmHg 51%
13:00 +13°C° 0 mm 3 mps 750 mmHg 51%
14:00 +13°C° 0 mm 3 mps 750 mmHg 51%
15:00 +12°C° 0.2 mm 3 mps 750 mmHg 62%
16:00 +10°C° 0.2 mm 3 mps 750 mmHg 73%
17:00 +9°C° 0.2 mm 2 mps 750 mmHg 84%
18:00 +9°C° 0.5 mm 2 mps 751 mmHg 87%
19:00 +9°C° 0.5 mm 2 mps 751 mmHg 90%
20:00 +9°C° 0.5 mm 2 mps 751 mmHg 93%
21:00 +9°C° 0 mm 3 mps 751 mmHg 92%
22:00 +9°C° 0 mm 3 mps 751 mmHg 90%
23:00 +8°C° 0 mm 4 mps 751 mmHg 89%

18 April, Sunday

Time Temperature Precipitation Wind Pressure Humidity
00:00 +8°C° 0 mm 4 mps 751 mmHg 88%
01:00 +8°C° 0 mm 4 mps 751 mmHg 88%
02:00 +8°C° 0 mm 4 mps 751 mmHg 88%
03:00 +8°C° 0 mm 4 mps 751 mmHg 88%
04:00 +7°C° 0 mm 4 mps 751 mmHg 88%
05:00 +7°C° 0 mm 4 mps 752 mmHg 87%
06:00 +7°C° 0 mm 4 mps 752 mmHg 88%
07:00 +7°C° 0 mm 4 mps 752 mmHg 88%
08:00 +8°C° 0 mm 3 mps 753 mmHg 88%
09:00 +9°C° 0 mm 3 mps 753 mmHg 81%
10:00 +10°C° 0 mm 3 mps 753 mmHg 73%
11:00 +11°C° 0 mm 3 mps 754 mmHg 66%
12:00 +11°C° 0 mm 3 mps 754 mmHg 64%
13:00 +11°C° 0 mm 3 mps 754 mmHg 63%
14:00 +12°C° 0 mm 3 mps 754 mmHg 62%
15:00 +11°C° 0 mm 3 mps 754 mmHg 64%
16:00 +11°C° 0 mm 3 mps 754 mmHg 66%
17:00 +11°C° 0 mm 3 mps 754 mmHg 68%
18:00 +10°C° 0 mm 3 mps 754 mmHg 72%
19:00 +10°C° 0 mm 3 mps 754 mmHg 76%
20:00 +9°C° 0 mm 3 mps 755 mmHg 81%
21:00 +9°C° 0 mm 3 mps 755 mmHg 83%
22:00 +9°C° 0 mm 3 mps 755 mmHg 85%
23:00 +9°C° 0 mm 3 mps 755 mmHg 87%
Show more